| time (UTC) | temp C | wind direction | speed KPH | gust KPH | rain 1hr cm | rain 24hr cm | rain mn cm | humidity % | barometer mb |
| 20260507200000 | 8 | 280 | 0.0 | 0.0 | 0.00 | 0.00 | 0.00 | 85 | 1016.6 |
| 20260507193000 | 8 | 285 | 0.0 | 0.0 | 0.00 | 0.00 | 0.00 | 83 | 1016.6 |
| 20260507190002 | 9 | 305 | 0.0 | 0.0 | 0.00 | 0.00 | 0.00 | 83 | 1016.6 |
| 20260507183001 | 9 | 270 | 0.0 | 0.0 | 0.00 | 0.00 | 0.00 | 81 | 1016.6 |
| 20260507180001 | 9 | 290 | 0.0 | 0.0 | 0.00 | 0.00 | 0.00 | 79 | 1015.6 |
| 20260507173001 | 10 | 105 | 0.0 | 0.0 | 0.00 | 0.00 | 0.00 | 78 | 1015.6 |
| 20260507170001 | 10 | 335 | 0.0 | 0.0 | 0.00 | 0.00 | 0.00 | 75 | 1015.6 |
| 20260507163000 | 10 | 90 | 0.0 | 0.0 | 0.00 | 0.00 | 0.00 | 75 | 1015.6 |
| 20260507160001 | 10 | 220 | 0.0 | 0.0 | 0.00 | 0.00 | 0.00 | 74 | 1015.6 |
| 20260507153001 | 10 | 150 | 3.2 | 0.0 | 0.00 | 0.00 | 0.00 | 73 | 1014.6 |
| 20260507150000 | 10 | 110 | 1.6 | 0.0 | 0.00 | 0.00 | 0.00 | 73 | 1014.6 |
| 20260507143001 | 11 | 150 | 1.6 | 0.0 | 0.00 | 0.00 | 0.00 | 73 | 1014.6 |
| 20260507140003 | 11 | 335 | 1.6 | 0.0 | 0.00 | 0.00 | 0.00 | 72 | 1014.6 |
| 20260507133000 | 10 | 95 | 1.6 | 0.0 | 0.00 | 0.00 | 0.00 | 73 | 1014.6 |
| 20260507130000 | 10 | 90 | 8.0 | 0.0 | 0.00 | 0.00 | 0.00 | 73 | 1014.6 |
| 20260507123001 | 10 | 65 | 4.8 | 0.0 | 0.00 | 0.00 | 0.00 | 75 | 1014.6 |
| 20260507120000 | 8 | 95 | 9.7 | 0.0 | 0.00 | 0.00 | 0.00 | 77 | 1014.6 |
| 20260507113001 | 8 | 75 | 12.9 | 0.0 | 0.00 | 0.00 | 0.00 | 78 | 1013.6 |
| 20260507110001 | 8 | 85 | 8.0 | 0.0 | 0.00 | 0.00 | 0.00 | 78 | 1013.6 |
| 20260507103000 | 8 | 60 | 6.4 | 0.0 | 0.00 | 0.00 | 0.00 | 78 | 1013.6 |
| 20260507100004 | 8 | 20 | 11.3 | 0.0 | 0.00 | 0.00 | 0.00 | 78 | 1013.6 |
| 20260507093002 | 8 | 35 | 12.9 | 0.0 | 0.00 | 0.00 | 0.00 | 78 | 1012.6 |
| 20260507090001 | 8 | 20 | 11.3 | 0.0 | 0.00 | 0.00 | 0.00 | 81 | 1012.6 |
| 20260507083000 | 8 | 125 | 9.7 | 0.0 | 0.00 | 0.00 | 0.00 | 80 | 1012.6 |
| 20260507080000 | 8 | 120 | 6.4 | 0.0 | 0.00 | 0.00 | 0.00 | 80 | 1011.6 |
| 20260507073001 | 7 | 160 | 11.3 | 0.0 | 0.00 | 0.00 | 0.00 | 81 | 1011.6 |
| 20260507063001 | 7 | 60 | 8.0 | 0.0 | 0.00 | 0.00 | 0.00 | 83 | 1011.6 |
| 20260507060001 | 7 | 60 | 3.2 | 0.0 | 0.00 | 0.00 | 0.00 | 84 | 1011.6 |
| 20260507053001 | 7 | 50 | 1.6 | 0.0 | 0.00 | 0.00 | 0.00 | 85 | 1010.6 |
| 20260507050001 | 7 | 65 | 6.4 | 0.0 | 0.00 | 0.00 | 0.00 | 84 | 1010.6 |
| 20260507043001 | 7 | 135 | 9.7 | 0.0 | 0.00 | 0.00 | 0.00 | 84 | 1010.6 |
| 20260507040000 | 7 | 130 | 4.8 | 0.0 | 0.00 | 0.00 | 0.00 | 84 | 1009.6 |
| 20260507033001 | 7 | 55 | 3.2 | 0.0 | 0.00 | 0.00 | 0.00 | 85 | 1009.6 |
| 20260507030002 | 7 | 85 | 6.4 | 0.0 | 0.00 | 0.00 | 0.00 | 85 | 1009.6 |
| 20260507023001 | 7 | 85 | 3.2 | 0.0 | 0.00 | 0.00 | 0.00 | 85 | 1009.6 |
| 20260507020001 | 7 | 65 | 6.4 | 0.0 | 0.00 | 0.00 | 0.00 | 85 | 1009.6 |
| 20260507013001 | 7 | 80 | 4.8 | 0.0 | 0.00 | 0.00 | 0.00 | 85 | 1009.6 |
| 20260507010000 | 7 | 60 | 1.6 | 0.0 | 0.00 | 0.00 | 0.00 | 85 | 1008.6 |
| 20260507003001 | 7 | 65 | 6.4 | 0.0 | 0.00 | 0.00 | 0.00 | 85 | 1008.6 |
| 20260507000000 | 7 | 45 | 9.7 | 0.0 | 0.00 | 0.00 | 0.00 | 85 | 1008.6 |
| 20260506233003 | 7 | 70 | 4.8 | 0.0 | 0.00 | 0.00 | 0.00 | 85 | 1008.6 |
| 20260506230001 | 7 | 75 | 6.4 | 0.0 | 0.00 | 0.00 | 0.00 | 86 | 1008.6 |
| 20260506223000 | 8 | 95 | 9.7 | 0.0 | 0.00 | 0.00 | 0.00 | 85 | 1008.6 |
| 20260506220001 | 9 | 35 | 9.7 | 0.0 | 0.00 | 0.00 | 2.31 | 84 | 1007.6 |
| 20260506213001 | 10 | 35 | 9.7 | 0.0 | 0.00 | 0.00 | 2.31 | 84 | 1007.6 |
| 20260506210000 | 10 | 75 | 1.6 | 0.0 | 0.00 | 0.00 | 2.31 | 84 | 1007.6 |
| 20260506203001 | 10 | 105 | 1.6 | 0.0 | 0.00 | 0.00 | 2.31 | 85 | 1007.6 |